Location: Franzen
(48.6167°N, 15.3833°E)
Time: 09:12:46
(UTC+00:00)

Explorer 11/Cluster Stage 4 - All Passes

Search period start: 31 July 2021 00:00
Search period end: 10 August 2021 00:00
Orbit: 467 x 1257 km, 28.8° (Epoch: 30 July)

Date Brightness Start Highest point End Pass type
(mag) Time Alt. Az. Time Alt. Az. Time Alt. Az.
31 Jul - 08:22:30 10° S 08:25:55 13° SSE 08:29:18 10° SE daylight
31 Jul - 10:08:57 10° SW 10:13:40 17° S 10:18:09 10° SE daylight
31 Jul - 11:58:17 10° SW 12:01:17 13° SSW 12:04:10 10° S daylight
01 Aug - 08:10:35 10° SSW 08:14:26 14° SSE 08:18:17 10° SE daylight
01 Aug - 09:57:22 10° SW 10:02:12 17° S 10:06:52 10° SE daylight
01 Aug - 11:46:57 10° SW 11:49:50 12° SSW 11:52:37 10° S daylight
02 Aug - 07:58:48 10° SSW 08:02:58 15° SSE 08:07:08 10° SE daylight
02 Aug - 09:45:50 10° SW 09:50:44 17° S 09:55:31 10° SSE daylight
02 Aug - 11:35:46 10° SW 11:38:23 12° SSW 11:40:55 10° S daylight
03 Aug - 07:47:09 10° SSW 07:51:29 16° SSE 07:55:53 10° SE daylight
03 Aug - 09:34:24 10° SW 09:39:16 17° S 09:44:05 10° SSE daylight
03 Aug - 11:24:46 10° SW 11:26:54 11° SSW 11:29:01 10° S daylight
04 Aug - 07:35:35 10° SSW 07:40:00 16° S 07:44:33 10° SE daylight
04 Aug - 09:23:01 10° SW 09:27:47 17° S 09:32:34 10° SSE daylight
04 Aug - 11:14:12 10° SSW 11:15:25 10° SSW 11:16:39 10° SSW daylight
05 Aug - 07:24:08 10° SSW 07:28:33 16° S 07:33:07 10° SE daylight
05 Aug - 09:11:43 10° SW 09:16:19 16° S 09:20:57 10° SSE daylight
06 Aug - 07:12:45 10° SSW 07:17:04 16° S 07:21:38 10° SE daylight
06 Aug - 09:00:30 10° SW 09:04:50 16° S 09:09:15 10° SSE daylight
07 Aug - 07:01:27 10° SSW 07:05:38 16° S 07:10:04 10° SE daylight
07 Aug - 08:49:24 10° SW 08:53:23 15° S 08:57:27 10° SSE daylight
08 Aug - 05:06:03 10° SSE 05:06:44 10° SSE 05:07:26 10° SSE daylight
08 Aug - 06:50:14 10° SSW 06:54:12 16° S 06:58:26 10° SE daylight
08 Aug - 08:38:26 10° SW 08:41:55 14° SSW 08:45:30 10° SSE daylight
09 Aug - 04:54:32 10° SSE 04:55:20 10° SSE 04:56:09 10° SSE daylight
09 Aug - 06:39:05 10° SSW 06:42:47 15° S 06:46:44 10° SSE daylight
09 Aug - 08:27:39 10° SW 08:30:28 12° SSW 08:33:22 10° S daylight
